TimeEST,TemperatureF,Dew PointF,Humidity,Sea Level PressureIn,VisibilityMPH,Wind Direction,Wind SpeedMPH,Gust SpeedMPH,PrecipitationIn,Events,Conditions,WindDirDegrees,DateUTC
12:15 AM,21.9,18.3,86,30.21,10.0,Calm,Calm,-,N/A,,Clear,0,2013-01-03 05:15:00
12:35 AM,21.2,18.5,89,30.20,10.0,Calm,Calm,-,N/A,,Clear,0,2013-01-03 05:35:00
12:55 AM,21.0,18.5,90,30.21,10.0,Calm,Calm,-,N/A,,Clear,0,2013-01-03 05:55:00
1:15 AM,21.2,18.3,89,30.20,10.0,Calm,Calm,-,N/A,,Clear,0,2013-01-03 06:15:00
1:35 AM,20.5,18.0,90,30.20,10.0,Calm,Calm,-,N/A,,Clear,0,2013-01-03 06:35:00
1:55 AM,19.8,17.6,91,30.20,10.0,Calm,Calm,-,N/A,,Clear,0,2013-01-03 06:55:00
2:15 AM,19.2,17.1,91,30.20,10.0,Calm,Calm,-,N/A,,Clear,0,2013-01-03 07:15:00
2:55 AM,17.8,15.6,91,30.21,10.0,Calm,Calm,-,N/A,,Clear,0,2013-01-03 07:55:00
3:15 AM,18.0,15.8,91,30.21,10.0,Calm,Calm,-,N/A,,Clear,0,2013-01-03 08:15:00
3:35 AM,17.2,15.1,91,30.22,10.0,Calm,Calm,-,N/A,,Clear,0,2013-01-03 08:35:00
3:55 AM,17.1,15.3,93,30.21,7.0,Calm,Calm,-,N/A,,Clear,0,2013-01-03 08:55:00
4:15 AM,16.7,14.9,93,30.20,7.0,Calm,Calm,-,N/A,,Clear,0,2013-01-03 09:15:00
4:35 AM,16.5,14.7,93,30.21,7.0,Calm,Calm,-,N/A,,Clear,0,2013-01-03 09:35:00
4:55 AM,15.6,13.8,93,30.20,10.0,Calm,Calm,-,N/A,,Clear,0,2013-01-03 09:55:00
5:15 AM,16.3,14.4,92,30.20,10.0,Calm,Calm,-,N/A,,Clear,0,2013-01-03 10:15:00
5:55 AM,15.3,13.5,93,30.20,10.0,Calm,Calm,-,N/A,,Clear,0,2013-01-03 10:55:00
6:15 AM,14.4,12.2,91,30.21,10.0,Calm,Calm,-,N/A,,Clear,0,2013-01-03 11:15:00
6:35 AM,14.9,13.1,93,30.21,10.0,Calm,Calm,-,N/A,,Clear,0,2013-01-03 11:35:00
7:15 AM,14.7,12.7,92,30.22,10.0,Calm,Calm,-,N/A,,Clear,0,2013-01-03 12:15:00
7:35 AM,14.9,12.7,91,30.22,10.0,Calm,Calm,-,N/A,,Clear,0,2013-01-03 12:35:00
7:55 AM,14.5,12.4,91,30.22,10.0,Calm,Calm,-,N/A,,Clear,0,2013-01-03 12:55:00
8:15 AM,14.0,11.8,91,30.23,10.0,Calm,Calm,-,N/A,,Clear,0,2013-01-03 13:15:00
8:35 AM,14.0,12.0,92,30.24,10.0,North,-9999.0,-,N/A,,Clear,0,2013-01-03 13:35:00
8:55 AM,14.0,12.0,92,30.25,10.0,Calm,Calm,-,N/A,,Clear,0,2013-01-03 13:55:00
9:15 AM,14.4,12.2,91,30.25,10.0,Calm,Calm,-,N/A,,Clear,0,2013-01-03 14:15:00
9:35 AM,15.8,13.6,91,30.25,10.0,Calm,Calm,-,N/A,,Clear,0,2013-01-03 14:35:00
9:55 AM,17.4,14.9,90,30.25,10.0,Calm,Calm,-,N/A,,Clear,0,2013-01-03 14:55:00
10:15 AM,21.2,18.5,89,30.25,10.0,Calm,Calm,-,N/A,,Clear,0,2013-01-03 15:15:00
10:35 AM,24.4,20.1,84,30.24,10.0,WSW,3.5,-,N/A,,Clear,240,2013-01-03 15:35:00
10:55 AM,27.5,19.9,73,30.24,10.0,WSW,5.8,-,N/A,,Clear,240,2013-01-03 15:55:00
11:15 AM,29.1,18.5,65,30.24,10.0,WSW,6.9,-,N/A,,Clear,240,2013-01-03 16:15:00
11:35 AM,30.4,16.7,57,30.22,10.0,WSW,4.6,-,N/A,,Clear,240,2013-01-03 16:35:00
11:55 AM,32.0,17.2,55,30.21,10.0,SW,6.9,-,N/A,,Clear,220,2013-01-03 16:55:00
12:15 PM,32.0,18.0,56,30.21,10.0,WSW,5.8,-,N/A,,Clear,240,2013-01-03 17:15:00
12:35 PM,32.9,19.9,59,30.21,10.0,WSW,9.2,-,N/A,,Clear,240,2013-01-03 17:35:00
12:55 PM,33.8,21.2,60,30.20,10.0,SW,5.8,-,N/A,,Clear,230,2013-01-03 17:55:00
1:15 PM,34.2,21.0,59,30.19,10.0,WSW,9.2,-,N/A,,Clear,250,2013-01-03 18:15:00
1:35 PM,34.7,20.7,57,30.19,10.0,West,9.2,-,N/A,,Clear,260,2013-01-03 18:35:00
1:55 PM,35.1,21.0,57,30.19,10.0,West,8.1,-,N/A,,Clear,260,2013-01-03 18:55:00
2:15 PM,35.8,20.1,53,30.18,10.0,WSW,11.5,-,N/A,,Clear,250,2013-01-03 19:15:00
2:35 PM,36.1,20.8,54,30.18,10.0,SW,9.2,-,N/A,,Clear,220,2013-01-03 19:35:00
3:15 PM,36.5,20.8,53,30.18,10.0,SW,6.9,-,N/A,,Clear,230,2013-01-03 20:15:00
3:35 PM,36.5,21.4,54,30.19,10.0,WSW,10.4,-,N/A,,Clear,240,2013-01-03 20:35:00
3:55 PM,36.7,21.6,54,30.19,10.0,WSW,10.4,-,N/A,,Clear,240,2013-01-03 20:55:00
4:15 PM,36.7,21.2,54,30.20,10.0,WSW,8.1,-,N/A,,Clear,240,2013-01-03 21:15:00
4:35 PM,36.5,19.0,49,30.21,10.0,West,11.5,21.9,N/A,,Clear,270,2013-01-03 21:35:00
4:55 PM,36.0,18.5,49,30.21,10.0,West,12.7,-,N/A,,Clear,260,2013-01-03 21:55:00
5:15 PM,35.1,19.0,52,30.22,10.0,West,9.2,-,N/A,,Clear,270,2013-01-03 22:15:00
5:35 PM,33.8,19.2,55,30.22,10.0,West,5.8,-,N/A,,Clear,280,2013-01-03 22:35:00
5:55 PM,33.3,19.2,56,30.23,10.0,West,5.8,-,N/A,,Mostly Cloudy,270,2013-01-03 22:55:00
6:15 PM,32.0,20.5,63,30.24,10.0,West,4.6,-,N/A,,Overcast,270,2013-01-03 23:15:00
6:35 PM,33.3,19.2,56,30.24,10.0,West,5.8,-,N/A,,Overcast,270,2013-01-03 23:35:00
6:55 PM,32.7,20.5,61,30.24,10.0,WNW,3.5,-,N/A,,Overcast,290,2013-01-03 23:55:00
7:15 PM,32.2,19.9,61,30.25,10.0,West,5.8,-,N/A,,Overcast,280,2013-01-04 00:15:00
7:35 PM,32.2,19.9,61,30.26,10.0,West,8.1,-,N/A,,Overcast,280,2013-01-04 00:35:00
7:55 PM,32.4,20.3,61,30.26,10.0,West,10.4,-,N/A,,Overcast,280,2013-01-04 00:55:00
8:15 PM,32.0,20.7,63,30.27,10.0,West,6.9,-,N/A,,Overcast,280,2013-01-04 01:15:00
8:35 PM,32.0,20.1,62,30.27,10.0,West,6.9,-,N/A,,Overcast,280,2013-01-04 01:35:00
8:55 PM,31.6,19.8,62,30.27,10.0,West,8.1,-,N/A,,Mostly Cloudy,280,2013-01-04 01:55:00
9:15 PM,31.8,19.9,62,30.27,10.0,West,9.2,-,N/A,,Overcast,260,2013-01-04 02:15:00
9:35 PM,32.0,20.3,62,30.27,10.0,West,8.1,18.4,N/A,,Overcast,270,2013-01-04 02:35:00
10:15 PM,31.8,20.3,62,30.29,10.0,West,8.1,17.3,N/A,,Overcast,260,2013-01-04 03:15:00
10:35 PM,31.8,20.1,62,30.29,10.0,West,6.9,-,N/A,,Overcast,280,2013-01-04 03:35:00
10:55 PM,32.0,19.8,61,30.29,10.0,West,10.4,-,N/A,,Overcast,270,2013-01-04 03:55:00
11:15 PM,32.0,19.8,61,30.29,10.0,West,10.4,-,N/A,,Overcast,280,2013-01-04 04:15:00
11:35 PM,32.0,19.9,61,30.29,10.0,WNW,6.9,-,N/A,,Overcast,290,2013-01-04 04:35:00